[[{"header":{"parameterUnit":"m.s-1","parameterCategory":1,"la1":30.2991,"la2":30.254,"lo1":-89.0895,"lo2":-89.0444,"dy":0.0017,"dx":0.0017,"nx":28,"ny":28,"refTime":"2026-03-04T03:00:00:Z","depth":0,"parameterNumber":2,"parameterNumberName":"U-component_of_WINDS"},"data":[0,0,0,0,0,0,0,0,0,0,0,0,0,0,0,0,0,0,0,0,0,0,0,0,0,0,0,0,0,0,0,0,0,0,0,0,0,0,0,0,0,0,0,0,0,0,0,0,0,0,0,0,0,0,0,0,0,0,-5.5584,-5.5586,0,-5.5759,-5.5761,-5.5763,-5.5776,-5.5774,-5.5772,-5.577,-5.5949,-5.5955,-5.5962,0,0,0,0,0,0,0,0,0,0,0,0,0,-5.5264,-5.5269,-5.5584,-5.5586,-5.5588,-5.5759,-5.5761,-5.5764,-5.5776,-5.5774,-5.5771,-5.5769,-5.5947,-5.5955,-5.5963,0,0,0,0,0,0,0,0,0,0,0,0,0,-5.5417,-5.5271,-5.5583,-5.5615,-5.5619,-5.5758,-5.5761,-5.5764,-5.5777,-5.5774,-5.5771,-5.5768,-5.5944,-5.5954,-5.5964,-5.6083,0,0,-5.5994,-5.5998,0,0,0,0,0,0,0,0,-5.5408,-5.5429,-5.5608,-5.5613,-5.5618,-5.5743,-5.5714,-5.5871,-5.5777,-5.5717,-5.577,-5.5767,-5.5883,-5.5897,-5.5937,-5.6091,-5.6099,-5.5995,-5.6001,-5.6005,-5.6008,0,0,0,0,0,0,0,-5.5398,-5.5421,-5.5653,-5.5611,-5.5617,-5.5622,-5.564,-5.5744,-5.5814,-5.5722,-5.5723,-5.5744,-5.5885,-5.5927,-5.5941,-5.6101,-5.5994,-5.6003,-5.6009,-5.6013,-5.6367,-5.6371,0,0,0,0,0,0,-5.5381,-5.5412,-5.5647,-5.5658,-5.5504,-5.563,-5.5651,-5.5706,-5.5813,-5.5826,-5.5746,-5.5744,-5.5912,-5.5929,-5.5947,-5.6095,-5.6005,-5.6014,-5.602,-5.6364,-5.6368,-5.6372,0,0,0,0,0,0,-5.5374,-5.5402,-5.564,-5.5536,-5.5567,-5.5638,-5.57,-5.5711,-5.5753,-5.5831,-5.5844,-5.5776,-5.591,-5.5933,-5.605,-5.6102,-5.6018,-5.6027,-5.636,-5.6365,-5.637,-5.6391,0,0,0,0,0,0,-5.5365,-5.5399,-5.5443,-5.5537,-5.5572,-5.5738,-5.5703,-5.5716,-5.577,-5.5768,-5.5863,-5.5875,-5.591,-5.6035,-5.606,-5.6114,-5.6035,-5.6355,-5.6362,-5.6368,-5.6386,-5.6396,-5.6405,0,0,0,0,0,-5.5353,-5.5441,-5.5445,-5.5474,-5.5629,-5.5741,-5.5762,-5.5799,-5.5774,-5.582,-5.5872,-5.5872,-5.6093,-5.6047,-5.6075,-5.6132,-5.6352,-5.636,-5.6368,-5.6382,-5.6394,-5.6405,0,0,0,0,0,0,-5.535,-5.5454,-5.5459,-5.558,-5.5652,-5.5743,-5.5802,-5.5811,-5.5891,-5.5886,-5.593,-5.5952,-5.6067,-5.6112,-5.6059,-5.6256,-5.622,-5.6234,-5.6221,-5.6234,-5.6243,-5.6228,-5.6043,0,0,0,0,0,-5.5363,-5.5445,-5.5532,-5.5631,-5.5667,-5.5729,-5.5779,-5.5803,-5.5878,-5.5909,-5.5968,-5.6043,-5.6129,-5.6185,-5.6268,-5.6395,-5.6416,-5.6449,-5.6458,-5.6466,-5.6476,-5.6549,-5.6565,-5.6398,-5.6398,-5.6398,0,0,-5.5391,-5.5459,-5.5507,-5.5632,-5.569,-5.5775,-5.5754,-5.5843,-5.5908,-5.5922,-5.6036,-5.6084,-5.617,-5.6292,-5.6349,-5.6333,-5.6529,-5.6476,-5.6481,-5.6488,-5.6559,-5.6575,-5.6589,-5.6403,-5.6402,-5.6401,0,0,-5.5485,-5.5544,-5.5634,-5.5694,-5.5784,-5.5826,-5.5848,-5.594,-5.5972,-5.6088,-5.6102,-5.6181,-5.6328,-5.6389,-5.644,-5.6567,-5.6571,-5.6593,-5.6642,-5.6713,-5.6726,-5.6738,-5.6783,-5.6799,-5.6604,-5.6604,-5.6604,0,-5.5508,-5.5636,-5.5678,-5.577,-5.5825,-5.5846,-5.5938,-5.5995,-5.6108,-5.6146,-5.6128,-5.6317,-5.6376,-5.6515,-5.6546,-5.6587,-5.6614,-5.658,-5.6721,-5.6733,-5.6745,-5.6788,-5.6805,-5.6606,-5.6606,-5.6606,-5.6606,0,-5.566,-5.575,-5.5812,-5.5922,-5.5985,-5.6076,-5.6135,-5.6194,-5.6215,-5.626,-5.638,-5.6453,-5.6554,-5.659,-5.6609,-5.6733,-5.6721,-5.6711,-5.6675,-5.6762,-5.6804,-5.6821,-5.6609,-5.6608,-5.6608,-5.6607,0,0,-5.5749,-5.5887,-5.5909,-5.5961,-5.6066,-5.6136,-5.6231,-5.6331,-5.6382,-5.6462,-5.6542,-5.6671,-5.6664,-5.6722,-5.6751,-5.6813,-5.6911,-5.6797,-5.68,-5.6814,-5.7053,-5.7057,-5.7076,-5.6917,-5.692,-5.6923,-5.7046,0,-5.5854,-5.6021,-5.6066,-5.6209,-5.6293,-5.6319,-5.6402,-5.6476,-5.6523,-5.6603,-5.6655,-5.6745,-5.673,-5.6765,-5.6829,-5.6885,-5.6959,-5.6877,-5.6992,-5.6996,-5.6966,-5.7098,-5.7101,-5.7213,-5.7062,-5.7065,-5.7067,0,-5.5996,-5.608,-5.6232,-5.6331,-5.6368,-5.6441,-5.6539,-5.6615,-5.6702,-5.6732,-5.6801,-5.6825,-5.6927,-5.689,-5.7033,-5.6977,-5.7028,-5.7064,-5.7069,-5.7078,-5.7033,-5.7108,-5.7249,-5.7265,-5.7093,-5.7091,-5.7089,0,-5.6044,-5.6197,-5.6308,-5.6352,-5.647,-5.6522,-5.6573,-5.6658,-5.6717,-5.6804,-5.6843,-5.694,-5.6993,-5.7069,-5.712,-5.7088,-5.7259,-5.7226,-5.7287,-5.7286,-5.7317,-5.7314,-5.7466,-5.7355,-5.7355,-5.7355,-5.7354,0,-5.6154,-5.6246,-5.6332,-5.64,-5.6505,-5.6559,-5.6662,-5.6714,-5.6791,-5.6871,-5.6901,-5.6976,-5.704,-5.7125,-5.7166,-5.7279,-5.7303,-5.7331,-5.734,-5.7326,-5.7322,-5.7357,-5.7349,-5.7359,-5.7358,-5.7357,-5.7357,0,-5.6223,-5.6285,-5.6408,-5.6512,-5.6541,-5.6614,-5.6703,-5.6772,-5.6823,-5.6924,-5.6951,-5.7031,-5.7133,-5.7193,-5.7321,-5.7349,-5.7474,-5.7481,-5.7444,-5.7447,-5.7505,-5.7498,-5.7682,-5.7709,-5.7582,-5.7583,-5.7584,0,-5.6287,-5.6359,-5.6472,-5.6529,-5.6582,-5.6672,-5.6734,-5.6792,-5.6855,-5.6964,-5.702,-5.7124,-5.721,-5.7372,-5.7442,-5.7541,-5.755,-5.7608,-5.7564,-5.755,-5.7549,-5.7543,-5.7551,-5.7613,-5.7615,-5.7616,-5.7616,0,-5.6394,-5.6423,-5.651,-5.6611,-5.6684,-5.6766,-5.6847,-5.6892,-5.6965,-5.7035,-5.714,-5.7207,-5.7341,-5.7445,-5.7552,-5.7607,-5.7624,-5.7631,-5.765,-5.7634,-5.761,-5.7623,-5.7461,-5.7625,-5.7624,-5.7623,-5.7623,-5.7622,-5.6462,-5.6528,-5.6619,-5.6717,-5.6786,-5.6863,-5.6933,-5.6995,-5.7084,-5.7197,-5.7228,-5.7339,-5.743,-5.7576,-5.7635,-5.7724,-5.7714,-5.7742,-5.7748,-5.7753,-5.7755,-5.7599,-5.7744,-5.7743,-5.7743,-5.7743,-5.7743,0,-5.6569,-5.6631,-5.6721,-5.6836,-5.6914,-5.6928,-5.702,-5.7085,-5.7182,-5.7266,-5.7352,-5.7476,-5.7579,-5.7659,-5.7765,-5.7821,-5.7832,-5.7847,-5.7842,-5.7854,-5.7757,-5.7729,-5.7837,-5.7837,-5.7837,-5.7836,-5.7836,-5.7836,-5.6634,-5.6747,-5.6788,-5.6937,-5.6999,-5.7109,-5.7161,-5.7233,-5.7301,-5.7438,-5.7524,-5.7577,-5.7661,-5.7775,-5.7871,-5.7892,-5.7929,-5.7942,-5.7965,-5.7871,-5.7861,-5.7851,-5.7825,-5.795,-5.7951,-5.8054,-5.8055,-5.8056]},{"header":{"parameterUnit":"m.s-1","parameterCategory":1,"la1":30.2991,"la2":30.254,"lo1":-89.0895,"lo2":-89.0444,"dy":0.0017,"dx":0.0017,"nx":28,"ny":28,"refTime":"2026-03-04T03:00:00:Z","depth":0,"parameterNumber":3,"parameterNumberName":"V-component_of_WINDS"},"data":[0,0,0,0,0,0,0,0,0,0,0,0,0,0,0,0,0,0,0,0,0,0,0,0,0,0,0,0,0,0,0,0,0,0,0,0,0,0,0,0,0,0,0,0,0,0,0,0,0,0,0,0,0,0,0,0,0,0,2.0049,2.0049,0,2.0097,2.0098,2.0098,2.0213,2.0216,2.0218,2.022,2.0262,2.0261,2.026,0,0,0,0,0,0,0,0,0,0,0,0,0,2.005,2.005,2.0049,2.0049,2.005,2.0097,2.0098,2.0099,2.0213,2.0216,2.0219,2.0221,2.0263,2.0261,2.026,0,0,0,0,0,0,0,0,0,0,0,0,0,2.0069,2.0049,2.0049,2.0113,2.0119,2.0097,2.0098,2.0099,2.0212,2.0216,2.0219,2.0223,2.0263,2.0261,2.026,2.0177,0,0,2.0254,2.0254,0,0,0,0,0,0,0,0,2.0068,2.0069,2.0103,2.0108,2.0115,2.0153,2.0114,2.0125,2.0211,2.0176,2.022,2.0225,2.0222,2.0224,2.0225,2.0179,2.0181,2.0254,2.0253,2.0253,2.0252,0,0,0,0,0,0,0,2.0066,2.0067,2.0068,2.0103,2.0111,2.0138,2.0144,2.0117,2.0178,2.018,2.0188,2.0193,2.0226,2.0227,2.0227,2.0181,2.0254,2.0253,2.0252,2.0251,2.0073,2.0069,0,0,0,0,0,0,2.0057,2.0065,2.0066,2.0069,2.01,2.0135,2.0142,2.0137,2.0179,2.0189,2.019,2.0198,2.0228,2.0229,2.0229,2.0137,2.0253,2.0251,2.025,2.0076,2.0072,2.0068,0,0,0,0,0,0,2.0056,2.0056,2.0064,2.007,2.0073,2.0131,2.0124,2.0136,2.0137,2.0187,2.0198,2.0179,2.0231,2.0231,2.019,2.014,2.025,2.0249,2.0081,2.0075,2.007,1.9951,0,0,0,0,0,0,2.0056,2.0055,2.0025,2.0068,2.0072,2.0026,2.0121,2.0135,2.0134,2.0146,2.0179,2.0188,2.0233,2.0192,2.0189,2.014,2.0247,2.0085,2.0078,2.0072,1.996,1.9942,1.9927,0,0,0,0,0,2.0055,1.9987,2.0023,2.0022,2.0036,2.0023,2.0025,2.008,2.013,2.01,2.0133,2.0187,2.0146,2.0187,2.0184,2.0134,2.0089,2.008,2.0072,1.9967,1.9946,1.9927,0,0,0,0,0,0,1.9932,1.9994,2.0034,1.9978,1.9995,2.0042,2.0006,2.0055,2.0056,2.0066,2.0133,2.014,2.009,2.0108,2.0152,2.0058,2.0127,2.0117,2.0048,2.0028,2.0012,2.0008,2.0246,0,0,0,0,0,1.9899,1.9885,1.9938,1.9884,1.9891,1.9946,1.9942,1.9985,2.0003,2.001,2.004,2.0054,2.0046,2.0037,2.0032,1.9963,1.9973,1.9927,1.9911,1.9897,1.9888,1.9856,1.9837,2.004,2.004,2.0041,0,0,1.9829,1.9861,1.9847,1.986,1.9878,1.9861,1.9951,1.9928,1.9916,2.0006,1.9971,1.9993,2.0013,1.9959,1.9936,1.9972,1.9834,1.9887,1.9875,1.9874,1.9845,1.9826,1.9809,2.0035,2.0036,2.0037,0,0,1.9694,1.9716,1.9675,1.9692,1.972,1.9758,1.9748,1.9789,1.9808,1.9774,1.9842,1.9828,1.981,1.9823,1.9827,1.97,1.9751,1.9696,1.9611,1.9578,1.9562,1.9548,1.9504,1.9488,1.9687,1.9687,1.9687,0,1.9603,1.9582,1.9646,1.9621,1.9624,1.9709,1.9667,1.968,1.9702,1.9703,1.9743,1.9726,1.9745,1.9696,1.9666,1.9666,1.9656,1.9692,1.956,1.9546,1.9534,1.9493,1.9476,1.968,1.9681,1.9682,1.9682,0,1.947,1.9454,1.9417,1.9441,1.9441,1.9406,1.9465,1.9457,1.9499,1.9533,1.9498,1.9526,1.9528,1.952,1.9559,1.9477,1.9499,1.9548,1.9619,1.9507,1.947,1.9454,1.967,1.9673,1.9675,1.9677,0,0,1.9255,1.9319,1.9304,1.9318,1.9356,1.9344,1.9314,1.932,1.9313,1.9326,1.9303,1.9288,1.9336,1.934,1.9382,1.9353,1.9254,1.9407,1.9409,1.9379,1.9167,1.913,1.911,1.9288,1.9286,1.9283,1.9166,0,1.913,1.9085,1.9144,1.9086,1.9073,1.9154,1.9129,1.9149,1.918,1.9172,1.9206,1.9195,1.9258,1.9262,1.9238,1.9271,1.9212,1.928,1.9267,1.9265,1.9259,1.9091,1.905,1.8938,1.9151,1.9149,1.9147,0,1.8977,1.8987,1.8929,1.8974,1.8971,1.8947,1.8958,1.895,1.8975,1.9,1.9007,1.9059,1.9033,1.9102,1.9066,1.9111,1.9109,1.9125,1.9122,1.9123,1.9199,1.9087,1.8903,1.8886,1.9124,1.9126,1.9128,0,1.8828,1.8827,1.8794,1.8802,1.8853,1.8835,1.8855,1.8884,1.8884,1.8894,1.8895,1.89,1.8902,1.8904,1.8956,1.9002,1.8914,1.8988,1.8934,1.8932,1.8911,1.8912,1.8724,1.8909,1.8909,1.8909,1.891,0,1.8682,1.8643,1.8728,1.8707,1.8666,1.8734,1.8691,1.8719,1.8745,1.873,1.88,1.8784,1.8853,1.8845,1.8885,1.885,1.885,1.8869,1.888,1.8863,1.8861,1.8862,1.8872,1.8905,1.8906,1.8907,1.8908,0,1.8509,1.8565,1.8533,1.8586,1.8598,1.8566,1.8611,1.8593,1.863,1.8611,1.861,1.8667,1.8661,1.8714,1.8716,1.8743,1.869,1.8714,1.8682,1.869,1.8634,1.8638,1.8441,1.8419,1.8616,1.8614,1.8613,0,1.8413,1.8386,1.8437,1.8434,1.8451,1.8444,1.8447,1.8512,1.8512,1.854,1.8519,1.8519,1.8523,1.8509,1.855,1.8553,1.8578,1.8509,1.8578,1.8563,1.8578,1.8579,1.8578,1.8494,1.8491,1.8489,1.8488,0,1.8236,1.8266,1.8268,1.828,1.8282,1.8294,1.831,1.8303,1.8374,1.837,1.8367,1.837,1.8375,1.8374,1.8386,1.8405,1.8458,1.8466,1.8454,1.8436,1.8419,1.8429,1.8643,1.847,1.8471,1.8473,1.8474,1.8474,1.8099,1.808,1.8114,1.8115,1.8135,1.8149,1.8136,1.8174,1.8173,1.8184,1.8223,1.8213,1.824,1.8262,1.8277,1.8269,1.8302,1.8284,1.828,1.8274,1.8265,1.8421,1.8271,1.8272,1.8272,1.8273,1.8273,0,1.7927,1.7954,1.7954,1.7977,1.7978,1.8031,1.8052,1.8049,1.804,1.8063,1.8067,1.8063,1.8064,1.8106,1.8112,1.8098,1.8122,1.8097,1.8099,1.8102,1.8234,1.8245,1.8077,1.8077,1.8077,1.8077,1.8077,1.8078,1.7838,1.7809,1.7843,1.7825,1.7852,1.7845,1.7853,1.7867,1.7886,1.788,1.7882,1.7911,1.7942,1.7951,1.7954,1.7966,1.7965,1.7932,1.7952,1.8074,1.8093,1.8111,1.8121,1.7931,1.7931,1.7821,1.782,1.782]}]]